Wind_Speed
7 6 6 6 6 7 6 6 5 5 5 4 4 4 5 5 4 4 4 4 3 2 1 1 1 0 0 1 2 2 2 2 3 3 4 4 5 5 4 4 5 5 6
6 6 5 6 6 6 6 7 7 7 6 5 5 5 4 4 5 5 4 3 4 3 2 1 1 1 0 1 1 1 1 2 2 3 4 4 4 5 4 5 5 6 6
7 6 6 6 6 6 6 6 7 7 7 6 6 5 5 4 4 5 5 4 4 4 3 2 2 2 1 1 1 0 0 1 2 3 3 4 4 4 5 5 4 5 5
7 7 6 6 6 6 6 7 7 7 7 7 6 6 5 5 4 5 5 5 4 4 4 3 3 3 2 2 1 1 1 1 3 3 3 3 3 4 4 4 4 4 4
8 7 7 6 7 7 7 8 7 7 7 7 7 6 6 5 5 5 5 4 4 4 4 4 4 4 3 2 2 2 2 2 3 3 3 3 3 4 5 5 4 4 4
7 8 8 8 8 8 8 8 8 7 7 7 7 7 6 6 5 5 4 4 4 5 5 5 5 4 4 3 3 3 2 3 3 3 3 3 4 4 4 5 5 5 5
7 8 8 9 8 8 8 8 8 8 8 8 8 7 6 6 6 6 5 5 5 5 5 5 5 5 5 5 5 4 3 2 3 3 3 3 4 4 5 5 5 5 5
8 8 8 9 8 8 8 8 8 8 8 8 8 8 7 7 7 6 6 6 6 6 6 5 5 6 6 6 6 5 3 2 2 1 2 3 3 4 4 5 6 5 6
9 9 9 9 9 9 9 8 8 8 8 8 8 8 8 7 7 7 7 7 7 6 6 6 5 6 6 6 6 6 5 4 3 2 3 3 3 3 4 5 5 6 6
9 10 9 9 9 9 9 9 8 8 7 7 7 7 8 8 8 8 8 7 7 6 6 6 6 6 6 6 6 6 6 6 4 4 3 4 4 4 4 5 5 5 6
9 9 9 9 9 9 9 9 8 8 7 7 7 7 8 8 8 8 7 7 7 7 7 7 7 6 7 7 7 7 6 7 6 5 4 4 4 4 4 4 4 4 5
9 9 9 9 9 8 8 8 7 7 7 7 7 7 8 8 8 7 7 6 6 6 6 6 7 7 7 7 7 8 7 7 7 6 5 4 4 5 5 5 4 4 4
9 9 9 9 9 8 8 7 7 7 7 7 7 8 7 7 7 7 7 6 6 6 6 6 6 6 7 7 7 7 8 7 7 7 6 5 5 5 5 5 4 4 4
9 9 9 8 8 8 7 7 7 6 6 6 7 7 7 6 6 6 6 7 6 6 6 6 6 6 7 7 7 7 8 8 7 7 7 6 6 6 5 4 4 3 3
9 9 8 8 8 8 7 7 7 6 6 7 7 6 6 5 6 6 6 6 5 5 5 5 5 6 6 7 7 7 7 7 7 8 8 7 7 6 6 4 3 4 3
9 9 8 7 7 7 7 6 6 6 6 6 6 6 5 5 5 5 5 5 5 5 5 5 5 6 6 6 6 7 7 7 7 8 7 7 7 7 6 5 4 4 3
9 9 8 7 7 7 7 6 5 5 5 5 4 4 4 4 4 4 4 4 4 5 5 5 5 6 6 6 6 7 7 7 7 7 7 7 7 7 6 5 4 4 4
9 9 8 7 6 6 6 5 5 5 4 3 3 3 3 3 3 3 3 3 3 3 4 4 4 5 6 6 6 6 7 7 6 6 7 7 7 6 6 5 5 4 4
9 8 8 7 6 6 6 5 4 4 3 2 2 2 2 2 2 2 2 1 1 2 3 3 4 4 5 6 6 7 7 7 6 6 6 6 7 6 6 6 5 4 4
9 8 8 7 6 5 5 4 3 3 2 2 2 2 1 1 1 1 1 0 1 1 2 2 3 4 5 5 6 6 7 6 6 6 6 6 7 6 6 6 6 5 5
8 8 7 7 5 5 4 3 2 2 2 2 2 1 1 0 0 1 1 1 1 1 1 2 3 4 5 5 6 6 7 6 6 5 6 7 7 7 7 6 6 6 6
7 7 7 6 5 4 3 3 2 2 2 1 1 1 0 1 1 1 2 2 2 2 2 2 3 4 5 6 7 7 7 7 7 6 7 7 7 7 7 7 7 6 6
7 6 6 5 4 4 3 3 2 2 2 2 1 1 1 2 2 3 3 3 3 3 3 4 5 5 6 7 8 8 8 8 8 8 8 8 8 8 8 8 7 6 6
6 5 5 5 5 5 4 4 3 3 3 3 2 2 3 4 4 4 4 4 4 4 4 5 6 7 7 8 8 8 9 9 9 9 10 10 9 8 8 8 8 8 8
5 5 6 6 6 6 5 4 4 4 4 4 4 4 5 5 5 5 5 5 5 5 6 7 7 8 9 9 9 9 10 10 10 10 10 10 10 10 10 9 9 9 9
6 6 7 7 7 7 7 6 5 5 5 6 6 6 6 6 5 6 6 6 7 7 8 8 8 9 10 10 10 11 11 11 11 12 11 11 11 11 11 10 10 10 10
Wind_Direction
82 84 87 90 93 97 101 105 111 116 108 99 103 99 89 88 87 82 70 75 57 43 40 30 59 69 90 172 178 188 213 227 223 231 239 240 245 247 254 261 257 253 251
93 96 94 97 101 102 101 100 105 109 106 98 95 94 88 92 89 84 80 66 50 50 59 55 49 38 58 146 161 203 226 243 257 259 256 246 243 247 256 266 266 261 255
96 101 100 100 102 101 96 98 102 102 102 96 92 87 85 88 85 74 62 54 52 52 56 65 55 54 53 101 107 75 316 273 276 276 272 258 244 248 254 268 277 270 265
98 102 99 100 100 95 93 98 100 97 93 90 88 85 83 84 78 70 67 61 63 63 59 64 69 59 61 64 54 11 311 277 266 274 271 260 249 251 261 263 271 263 264
99 103 99 98 99 97 98 99 100 97 90 84 84 83 82 83 75 69 65 56 62 71 75 70 64 51 44 39 18 348 304 286 273 270 272 267 265 258 260 259 265 264 267
98 101 99 98 96 96 96 94 93 93 88 80 76 77 83 80 72 75 71 65 63 74 74 65 56 50 45 41 19 357 318 292 276 268 270 270 266 262 261 259 264 263 264
101 102 99 94 94 94 94 93 91 91 85 80 77 77 77 70 70 79 80 71 75 73 73 68 59 53 49 41 27 5 340 313 287 268 267 265 259 262 262 265 268 265 268
96 100 101 96 95 93 93 92 90 89 87 84 81 76 73 67 74 74 74 76 76 75 74 68 60 54 45 37 29 18 10 351 334 304 294 271 262 271 273 274 268 268 275
96 97 96 94 97 97 97 94 93 89 87 86 81 75 69 72 79 74 75 78 75 73 73 69 61 53 47 41 33 26 29 29 18 354 338 318 299 288 280 275 276 273 274
94 97 95 95 97 97 95 95 94 90 87 89 84 76 72 73 73 74 78 79 74 68 70 69 61 49 45 40 37 31 29 29 26 6 351 335 316 305 293 289 287 280 277
86 92 95 95 96 95 96 97 94 90 89 89 80 79 76 74 74 71 71 76 72 66 70 70 62 52 44 41 38 34 32 32 26 17 7 351 335 326 317 306 299 292 288
83 86 93 97 99 95 94 97 96 93 90 88 85 86 82 78 74 71 68 72 75 75 74 72 62 49 44 42 39 37 35 29 27 18 12 1 347 341 337 325 315 302 287
83 85 91 96 97 94 92 93 95 97 95 89 89 89 85 81 74 70 70 70 75 77 71 68 57 45 40 38 37 36 33 28 28 23 17 9 3 356 346 339 331 318 294
84 87 93 99 99 97 92 89 89 98 97 97 94 86 81 82 78 74 70 73 72 71 66 66 56 45 41 37 30 32 32 31 27 24 19 15 9 3 359 357 356 342 323
85 90 94 100 97 94 94 93 93 95 95 97 93 87 83 81 76 70 65 67 66 72 72 66 48 42 40 34 28 29 30 28 25 23 21 19 14 10 10 13 12 2 353
84 86 89 93 95 94 94 97 96 95 93 95 91 85 81 74 71 68 63 71 64 73 75 59 44 37 32 27 23 21 22 22 23 23 22 21 16 12 12 16 13 15 3
82 82 85 86 90 92 91 92 93 94 94 94 91 85 79 69 69 69 69 71 66 65 62 50 39 33 25 19 16 17 17 17 20 17 14 12 9 7 6 9 6 359 356
78 77 80 83 85 91 87 88 93 95 91 86 82 79 71 62 66 68 72 72 66 61 50 44 28 19 18 15 12 11 10 10 14 16 10 5 6 6 4 6 4 359 350
70 71 73 76 80 81 79 75 77 80 79 75 74 84 82 64 66 65 59 54 49 43 43 32 20 10 8 10 11 9 3 359 0 6 7 3 4 5 3 359 359 355 353
62 60 62 66 69 70 67 64 64 65 62 57 69 88 100 82 53 20 23 341 311 3 24 15 3 356 353 358 360 358 355 351 352 353 356 355 352 352 350 354 355 348 341
58 54 52 52 55 55 48 45 39 40 35 37 60 75 113 97 11 329 303 299 290 316 336 353 350 345 343 344 342 342 345 345 345 343 341 341 340 340 338 336 336 338 335
50 47 44 42 39 36 28 13 4 4 5 12 44 45 343 285 290 302 298 316 308 294 296 326 338 335 333 335 332 329 332 335 336 335 336 335 332 328 325 319 319 323 321
36 36 36 32 27 17 5 353 334 317 318 331 331 316 303 288 278 283 289 299 308 297 296 306 317 325 328 331 330 328 326 324 326 329 327 326 321 317 317 315 311 310 305
22 24 24 20 11 7 359 337 319 308 303 296 285 289 297 291 276 279 293 296 305 302 298 302 310 314 319 323 324 325 324 319 318 319 322 322 318 310 310 310 307 305 305
9 7 4 0 353 3 357 336 310 296 296 289 280 276 279 279 274 276 287 292 290 292 293 299 306 309 313 315 318 319 318 314 312 312 314 316 313 308 300 298 299 299 300
1 2 358 357 350 353 348 336 317 292 284 282 279 272 272 274 273 274 279 284 283 288 291 294 300 305 310 311 313 312 311 309 305 306 307 308 307 306 302 296 295 296 299
Height
5872 5873 5873 5873 5873 5873 5874 5874 5875 5876 5876 5877 5877 5878 5878 5878 5879 5879 5879 5880 5880 5879 5879 5879 5879 5879 5879 5880 5880 5880 5880 5881 5881 5881 5882 5882 5883 5883 5884 5884 5884 5884 5885
5873 5873 5874 5874 5874 5875 5875 5875 5876 5876 5877 5878 5878 5879 5879 5879 5880 5880 5880 5880 5880 5880 5879 5879 5879 5879 5879 5879 5880 5880 5880 5880 5881 5881 5881 5882 5882 5882 5883 5883 5883 5883 5884
5874 5874 5875 5875 5875 5876 5876 5876 5877 5877 5878 5878 5879 5880 5880 5880 5880 5881 5881 5881 5880 5880 5880 5880 5880 5880 5879 5879 5879 5880 5880 5880 5880 5880 5880 5881 5881 5882 5882 5882 5882 5883 5883
5875 5875 5876 5876 5876 5876 5877 5877 5878 5878 5879 5879 5880 5880 5881 5881 5881 5881 5881 5881 5881 5880 5880 5880 5880 5880 5880 5879 5879 5879 5879 5879 5879 5879 5880 5880 5880 5881 5881 5881 5882 5882 5882
5876 5876 5876 5877 5877 5877 5878 5878 5878 5879 5880 5880 5881 5881 5882 5882 5882 5882 5882 5882 5881 5881 5881 5881 5881 5880 5880 5879 5879 5879 5878 5878 5878 5879 5879 5879 5880 5880 5880 5881 5881 5881 5881
5877 5877 5877 5878 5878 5878 5879 5879 5879 5880 5881 5882 5882 5882 5882 5883 5882 5882 5882 5882 5882 5882 5882 5882 5881 5881 5880 5879 5878 5878 5877 5877 5877 5878 5878 5879 5879 5880 5880 5880 5880 5880 5880
5878 5878 5879 5879 5879 5880 5880 5880 5881 5882 5882 5883 5883 5883 5883 5883 5883 5883 5883 5883 5883 5883 5882 5882 5882 5881 5880 5879 5878 5876 5875 5876 5876 5877 5877 5878 5879 5879 5879 5879 5879 5879 5879
5880 5880 5880 5880 5880 5881 5881 5881 5882 5883 5883 5884 5884 5884 5884 5884 5884 5884 5884 5884 5883 5883 5883 5883 5882 5882 5880 5879 5878 5876 5875 5875 5876 5876 5877 5877 5878 5878 5879 5879 5879 5879 5879
5881 5881 5881 5881 5882 5882 5882 5883 5884 5884 5885 5885 5885 5885 5885 5885 5885 5885 5885 5885 5884 5884 5884 5883 5883 5882 5881 5880 5879 5877 5876 5875 5875 5876 5877 5877 5877 5878 5878 5878 5878 5877 5877
5882 5882 5883 5883 5883 5883 5884 5884 5885 5885 5886 5886 5886 5886 5886 5886 5886 5886 5886 5886 5885 5885 5885 5884 5884 5883 5882 5881 5880 5879 5878 5877 5877 5877 5877 5877 5877 5877 5877 5877 5876 5876 5876
5884 5884 5884 5884 5884 5885 5885 5886 5886 5886 5887 5887 5887 5887 5888 5888 5887 5887 5887 5886 5886 5886 5886 5885 5885 5884 5883 5882 5881 5880 5879 5879 5878 5878 5878 5877 5877 5877 5876 5876 5875 5875 5875
5886 5886 5886 5886 5886 5886 5887 5887 5888 5888 5888 5888 5888 5888 5889 5889 5888 5888 5888 5888 5887 5887 5887 5887 5886 5886 5885 5884 5883 5882 5881 5880 5879 5879 5878 5878 5877 5876 5876 5875 5874 5874 5873
5887 5887 5887 5887 5887 5888 5888 5888 5888 5889 5889 5889 5889 5890 5890 5890 5890 5889 5889 5889 5889 5888 5888 5888 5887 5886 5886 5885 5884 5883 5882 5881 5880 5879 5879 5878 5877 5876 5875 5874 5873 5873 5872
5889 5889 5889 5889 5889 5889 5889 5889 5889 5890 5890 5890 5890 5891 5891 5891 5891 5890 5890 5890 5890 5889 5889 5888 5888 5887 5887 5886 5885 5884 5883 5882 5881 5880 5879 5878 5877 5876 5875 5874 5873 5872 5871
5891 5890 5890 5890 5890 5890 5890 5890 5890 5890 5891 5891 5891 5892 5892 5892 5892 5891 5891 5891 5890 5890 5890 5889 5889 5888 5887 5887 5886 5885 5884 5883 5882 5881 5880 5878 5877 5876 5875 5874 5873 5872 5872
5892 5892 5892 5892 5892 5892 5892 5892 5892 5892 5892 5892 5892 5893 5892 5892 5892 5892 5892 5891 5891 5890 5890 5890 5889 5889 5888 5888 5887 5886 5885 5884 5882 5881 5880 5879 5877 5876 5875 5874 5873 5873 5872
5894 5894 5894 5894 5893 5893 5893 5893 5893 5893 5893 5893 5893 5893 5893 5893 5893 5892 5892 5892 5892 5891 5891 5890 5890 5889 5889 5888 5887 5886 5885 5883 5882 5881 5880 5879 5878 5877 5875 5874 5873 5873 5872
5895 5895 5895 5895 5895 5894 5894 5894 5894 5894 5894 5894 5893 5893 5893 5893 5893 5893 5893 5893 5892 5892 5891 5891 5890 5890 5889 5888 5887 5886 5885 5883 5882 5881 5880 5879 5878 5877 5876 5874 5873 5872 5871
5897 5897 5896 5896 5895 5895 5895 5894 5894 5894 5894 5894 5894 5894 5893 5894 5894 5893 5893 5893 5892 5892 5891 5891 5890 5890 5889 5888 5887 5886 5884 5883 5882 5881 5880 5879 5878 5877 5876 5875 5873 5872 5871
5898 5898 5897 5897 5896 5895 5895 5895 5894 5894 5894 5894 5894 5894 5894 5894 5893 5893 5893 5893 5892 5892 5891 5891 5890 5890 5889 5888 5887 5885 5884 5883 5882 5881 5880 5879 5878 5877 5876 5875 5873 5872 5871
5899 5899 5898 5897 5896 5896 5895 5895 5895 5894 5894 5894 5893 5893 5893 5893 5893 5893 5892 5892 5892 5891 5891 5890 5890 5889 5888 5887 5886 5885 5884 5883 5881 5880 5879 5878 5877 5876 5875 5874 5873 5872 5871
5900 5899 5898 5898 5897 5896 5896 5895 5895 5894 5894 5893 5893 5893 5893 5893 5892 5892 5892 5892 5891 5891 5890 5890 5889 5888 5887 5886 5885 5884 5883 5883 5881 5880 5878 5877 5876 5875 5874 5873 5872 5871 5870
5901 5900 5899 5898 5897 5896 5896 5895 5894 5893 5893 5892 5892 5892 5892 5892 5892 5892 5891 5891 5891 5890 5890 5889 5888 5887 5886 5885 5884 5883 5882 5881 5880 5879 5877 5876 5875 5874 5873 5872 5871 5870 5869
5901 5900 5899 5898 5897 5896 5895 5894 5893 5893 5892 5892 5891 5891 5891 5891 5891 5891 5890 5890 5890 5889 5889 5888 5887 5886 5885 5884 5883 5882 5881 5880 5879 5877 5876 5875 5873 5872 5871 5870 5869 5868 5867
5901 5900 5899 5898 5897 5896 5895 5893 5892 5892 5892 5891 5890 5890 5890 5890 5890 5890 5889 5889 5889 5888 5887 5887 5886 5884 5883 5882 5881 5880 5879 5878 5877 5876 5875 5873 5872 5870 5869 5868 5867 5866 5865
5901 5900 5899 5898 5897 5895 5894 5893 5892 5891 5890 5890 5889 5889 5888 5888 5888 5888 5888 5887 5887 5887 5886 5885 5884 5883 5882 5880 5879 5878 5877 5876 5874 5873 5872 5871 5870 5868 5867 5865 5864 5864 5863